Location: *
(49.2333°S, 177.3500°W)
Time: 02:54:46
(UTC+00:00)

Daily predictions for brighter satellites

Satellite Brightness Start Highest point End
(mag) Time Altitude Azimuth Time Altitude Azimuth Time Altitude Azimuth
COSMOS 2428 3.2 04:55:31 10° N 05:00:57 44° ENE 05:06:26 10° SE
ATLAS 5 CENTAUR R/B 2.0 04:57:07 10° NW 05:04:07 81° SW 05:06:40 10° SE
Cosmos 2263 Rocket 4.4 04:59:24 10° SW 05:04:24 32° WNW 05:09:22 10° NNW
Cosmos 1328 Rocket 3.6 05:00:34 10° N 05:04:56 85° E 05:09:22 10° S
Cosmos 923 Rocket 4.2 04:59:33 10° NNW 05:04:56 89° WSW 05:10:24 10° SSE
NOAA 6 4.1 04:59:42 10° SSE 05:05:02 88° E 05:10:17 10° NNW
Cosmos 1745 Rocket 4.0 05:02:22 10° S 05:08:45 74° E 05:14:59 10° NNE
CZ-2C R/B 4.0 05:07:01 10° ESE 05:09:13 13° E 05:11:25 10° ENE
Lacrosse 5 rocket 2.0 05:05:32 10° WSW 05:10:16 72° NW 05:14:53 10° NE
Cosmos 2056 Rocket 3.6 05:06:15 10° SSW 05:11:44 67° ESE 05:17:05 10° NNE
SL-24 R/B 4.5 05:07:04 10° SSE 05:11:47 48° E 05:15:51 10° N
Cosmos 1933 Rocket 3.9 05:07:36 10° SSW 05:12:11 75° W 05:16:41 10° N
Cosmos 2322 3.8 05:06:35 10° NNW 05:12:17 86° WSW 05:18:03 10° SSE
Cosmos 1709 Rocket 4.4 05:07:46 10° S 05:13:37 40° ESE 05:19:22 10° NE
Cosmos 1470 Rocket 4.0 05:09:43 10° SSW 05:14:07 68° W 05:18:27 10° N
Cosmos 1371 Rocket 4.1 05:08:40 10° SSW 05:14:09 88° ESE 05:19:34 10° NNE
Cosmos 1271 Rocket 4.5 05:12:51 10° ENE 05:15:05 15° E 05:17:20 10° SE
Cosmos 1553 Rocket 4.0 05:10:07 10° N 05:16:13 73° E 05:22:27 10° SSE
Okean O Rocket 4.4 05:14:22 10° SSW 05:16:32 13° SW 05:18:41 10° W
BREEZE-M DEB (TANK) 2.7 05:11:52 10° WNW 05:17:01 47° NNE 05:19:11 11° E
Meteor 1-28 Rocket 3.5 05:14:32 10° NNE 05:18:17 49° ESE 05:22:05 10° S
Iridium 2 4.4 05:15:21 10° S 05:19:00 35° ESE 05:22:37 10° NE
Cosmos 405 3.0 05:15:53 10° N 05:19:29 90° E 05:23:09 10° SSE
Cosmos 2297 4.5 05:14:53 10° SSW 05:19:57 31° SE 05:24:59 10° ENE
Meteor 1-31 Rocket 3.9 05:16:40 10° S 05:20:28 46° WSW 05:24:14 10° NW
Meteor 2-3 Rocket 4.2 05:15:15 10° S 05:20:45 39° ESE 05:26:08 10° NE
Cosmos 2228 Rocket 3.9 05:16:42 10° NNW 05:21:10 56° WSW 05:25:39 10° S
Cosmos 2237 4.3 05:15:35 10° NNW 05:21:13 65° ENE 05:26:55 10° SSE
Meteor 1-4 Rocket 4.1 05:19:55 10° NE 05:22:27 18° E 05:25:03 10° SE
Cosmos 1340 Rocket 3.7 05:19:31 10° S 05:23:03 28° ESE 05:26:31 10° NE
Lacrosse 5 2.1 05:19:03 10° WSW 05:24:13 78° NW 05:29:21 10° NE
Cosmos 1892 4.3 05:22:32 10° SSE 05:25:00 16° ESE 05:27:27 10° ENE
Radarsat Rocket 4.1 05:20:04 10° SSE 05:26:18 81° WSW 05:32:09 10° NNW
ADEOS Rocket 4.2 05:19:40 10° S 05:26:20 48° WSW 05:32:18 10° NW
IDEFIX/ARIANE 42P 3.9 05:23:57 10° SE 05:27:49 20° E 05:31:38 10° NE
Cosmos 1356 Rocket 4.5 05:24:28 10° SSE 05:27:50 24° ESE 05:31:11 10° ENE
ADEOS II 3.6 05:24:11 10° S 05:29:03 36° WSW 05:33:52 10° NW
Ariane Rocket 3.4 05:28:25 10° S 05:33:36 69° WSW 05:38:43 10° NNW
MOS 1 Rocket 3.9 05:29:12 10° S 05:33:49 61° WSW 05:38:40 10° NNW
Cosmos 1908 3.5 05:32:48 10° NNW 05:36:44 74° WSW 05:40:41 10° S
COSMO-SKYMED 1 4.2 05:33:14 10° NNW 05:37:21 39° W 05:41:32 10° SSW
Helios 1B rocket 2.7 05:34:42 10° N 05:38:53 76° WNW 05:43:06 10° SSW
SL-16 R/B 3.7 05:36:42 10° NE 05:39:45 15° E 05:40:25 15° E
Lacrosse 4 Rocket 2.7 05:37:26 10° NNE 05:40:53 23° ENE 05:42:38 18° ESE
Meteor 1-29 3.0 05:38:06 10° NNE 05:41:36 87° WNW 05:45:11 10° SSW
Cosmos 1707 Rocket 4.1 05:37:56 10° NNE 05:42:06 39° E 05:46:18 10° SSE
Cosmos 1726 2.8 05:39:11 10° NNE 05:42:33 32° E 05:45:57 10° SSE
USA 234 4.0 05:36:38 10° NE 05:43:04 57° NW 05:49:35 10° WSW
Cosmos 2242 Rocket 4.5 05:44:33 10° NNE 05:48:25 28° E 05:52:04 11° SSE
PAYLOAD A 4.3 05:43:43 10° SSE 05:48:35 43° E 05:53:12 10° N
APEX 2.8 05:47:28 10° SSW 05:50:49 49° SE 05:52:53 17° NE
Cosmos 2369 Rocket 3.9 05:48:09 10° S 05:51:17 15° SSE 05:52:31 14° SE
ATLAS 3B R/B 3.9 05:47:33 10° NE 05:51:26 17° ENE 05:52:22 16° E
Cosmos 2360 Rocket 3.2 05:48:07 10° NW 05:53:34 45° SW 05:59:04 10° SSE
Cosmos 1420 Rocket 4.4 05:50:44 10° SSW 05:55:52 42° ESE 06:00:56 10° NE
Cosmos 1733 Rocket 3.9 05:53:54 10° S 05:57:56 30° ESE 06:01:54 10° NE
CZ-4 R/B 1.2 05:55:37 10° SSE 05:59:37 77° ENE 06:03:36 10° N
ATLAS CENTAUR R/B 4.1 05:43:55 10° WNW 06:00:21 60° SSW 06:04:34 19° SE
Cosmos 1980 3.9 05:57:19 10° N 06:02:47 50° ENE 06:07:05 17° SE
MOS 1 4.3 05:59:24 10° SSE 06:05:14 73° ENE 06:10:58 10° N
Cosmos 2322 Rocket 4.3 06:01:13 10° W 06:05:29 21° SW 06:09:46 10° S
Cosmos 2237 Rocket 2.4 06:01:28 10° N 06:06:53 49° ENE 06:10:46 19° SE
Cosmos 1300 2.6 06:07:25 10° N 06:11:19 88° E 06:15:16 10° S
Cosmos 1452 Rocket 3.5 06:09:19 10° SSW 06:14:41 86° WNW 06:19:58 10° NNE
AQUARIUS 4.1 06:10:21 10° SSE 06:14:57 70° ENE 06:19:30 10° N
Cosmos 292 Rocket 3.9 06:10:34 10° NNW 06:15:27 76° WSW 06:20:19 11° SSE
SL-24 R/B 4.4 06:11:57 10° N 06:17:12 83° E 06:22:12 10° S
Meteor 1-27 4.2 06:13:48 10° N 06:19:32 78° E 06:25:26 10° SSE
CORIOLIS 4.1 06:15:49 10° SSE 06:21:20 66° ENE 06:26:47 10° N
YAOGAN 1 2.6 06:21:28 10° SSE 06:25:55 84° WSW 06:30:18 10° NNW
Cosmos 1943 Rocket 4.1 06:24:33 10° S 06:26:34 12° SSE 06:26:34 12° SSE
Cosmos 2278 Rocket 2.9 06:23:31 10° SW 06:29:07 56° WNW 06:34:40 10° N
SPOT 3 Rocket 3.9 06:25:54 10° S 06:31:11 67° WSW 06:36:25 10° NNW
Cosmos 2333 Rocket 2.1 06:25:42 10° NNW 06:31:26 82° ENE 06:35:19 22° SSE
Cosmos 2219 Rocket 2.4 06:28:59 10° NW 06:34:42 75° WSW 06:39:15 17° SSE
Cosmos 2184 Rocket 3.9 06:30:37 10° S 06:36:59 70° ESE 06:43:12 10° NNE
SMAP 3.3 06:34:42 10° S 06:39:27 73° WSW 06:44:08 10° NNW
Cosmos 2315 Rocket 4.2 06:33:19 10° NNW 06:39:44 75° W 06:46:15 10° S
SJ-7 4.4 06:37:38 18° S 06:40:37 78° WSW 06:44:39 10° NNW
COSMOS 2428 4.0 06:39:54 10° WNW 06:45:18 39° SW 06:50:30 11° SSE
CZ-2C R/B 2.2 06:43:55 13° SSE 06:48:10 83° WSW 06:52:47 10° NNW
Lacrosse 5 rocket 4.4 06:46:09 10° W 06:48:52 15° WNW 06:51:33 10° NNW
Genesis I 3.2 06:45:02 10° SW 06:48:59 79° NW 06:49:10 76° NNW
Cosmos 1271 Rocket 3.5 06:46:48 10° NNW 06:50:43 54° WSW 06:52:59 23° S
CZ-3A R/B 4.3 05:36:26 10° NW 06:51:55 88° SSW 06:57:51 32° ESE
NOSS 0 Rocket 4.1 06:47:31 10° NW 06:53:48 75° WSW 06:57:55 23° SSE
Meteor 1-4 Rocket 4.0 06:53:56 10° NW 06:57:22 37° WSW 06:59:28 20° SSW
Cosmos 1892 3.6 06:57:21 10° SSW 07:01:08 50° W 07:04:51 10° N
Cosmos 2297 4.3 06:58:53 10° SW 07:04:27 56° WNW 07:09:59 10° N
COSMOS 2455 2.7 06:58:40 10° NNW 07:04:40 69° ENE 07:05:20 63° E
Lacrosse 5 4.4 07:03:04 10° W 07:06:30 18° WNW 07:09:55 10° NNW
Cosmos 2074 Rocket 4.2 07:01:19 10° SSW 07:07:40 72° W 07:13:58 10° N
IDEFIX/ARIANE 42P 2.8 07:02:36 10° S 07:07:56 69° WSW 07:13:13 10° NNW
USA 32 4.0 07:05:10 10° N 07:10:27 85° W 07:15:49 10° S
Cosmos 1269 Rocket 3.9 07:06:50 10° NNW 07:11:45 74° NNE 07:11:45 74° NNE
Nadezhda 1 Rocket 3.9 07:10:07 10° N 07:16:33 79° E 07:23:00 10° SSE
Cosmos 1610 Rocket 4.4 07:11:18 10° S 07:17:35 85° W 07:23:46 10° N
Lacrosse 4 Rocket 2.3 07:15:09 10° NW 07:19:02 47° WSW 07:19:02 47° WSW
Nimbus 7 Rocket 4.4 07:18:21 40° NNE 07:20:44 88° WNW 07:26:57 10° SSW
SL-16 R/B 2.2 07:17:15 10° NNW 07:22:23 72° N 07:22:23 72° N
CZ-4 R/B 4.4 07:32:15 10° SSW 07:34:09 13° WSW 07:36:02 10° W
Cosmos 2369 Rocket 3.5 07:31:12 10° SSW 07:34:19 30° S 07:34:19 30° S
ATLAS 3B R/B 2.8 07:34:36 10° NNW 07:39:41 58° NNW 07:39:41 58° NNW
Cosmos 2341 Rocket 4.4 07:43:00 10° S 07:48:08 58° SSW 07:48:08 58° SSW
Cosmos 2237 Rocket 3.6 07:46:00 10° WNW 07:51:09 35° SW 07:52:38 30° SSW
Cosmos 1943 Rocket 4.4 08:06:58 10° SSW 08:08:07 16° SSW 08:08:07 16° SSW
Cosmos 2333 Rocket 4.1 08:11:49 10° W 08:16:25 24° SW 08:17:22 23° SSW
Cosmos 2219 Rocket 4.4 08:15:36 10° W 08:19:41 20° SW 08:21:01 18° SSW
